Location: ??????
(55.7522°N, 37.6156°E)
Time: 17:35:40
(UTC+00:00)

MetOp-A - Pass Details

Date: 14 June 2025
Orbit: 521 x 774 km, 98.3° (Epoch: 12 July)

Event Time Altitude Azimuth Distance (km) Brightness Sun altitude
Exits shadow 20:33:00 13° 178° (S) 1,997 5.5 -10.0°
Maximum altitude 20:37:15 59° 257° (WSW) 784 4.1 -10.1°
Drops below altitude 10° 20:41:41 10° 338° (NNW) 2,047 7.7 -10.3°
Sets 20:43:50 0° 342° (NNW) 2,919 9.2 -10.3°
